Time,TemperatureF,DewpointF,PressureIn,WindDirection,WindDirectionDegrees,WindSpeedMPH,WindSpeedGustMPH,Humidity,HourlyPrecipIn,Conditions,Clouds,dailyrainin,SoftwareType,DateUTC
2013-07-04 00:01:00,74.3,68.9,30.20,WSW,248,0.7,3.8,83,0.00,,,0.00,WUHU216HW,2013-07-04 04:01:00,
2013-07-04 00:02:00,74.3,68.9,30.20,SW,225,2.0,3.8,83,0.00,,,0.00,WUHU216HW,2013-07-04 04:02:00,
2013-07-04 00:03:00,74.1,68.7,30.20,ENE,68,0.4,3.8,83,0.00,,,0.00,WUHU216HW,2013-07-04 04:03:00,
2013-07-04 00:08:00,74.1,68.7,30.20,WSW,248,0.0,2.0,83,0.00,,,0.00,WUHU216HW,2013-07-04 04:08:00,
2013-07-04 00:14:00,74.1,68.7,30.20,NW,315,0.0,1.8,83,0.00,,,0.00,WUHU216HW,2013-07-04 04:14:00,
2013-07-04 00:19:00,74.1,68.7,30.20,SW,225,1.8,1.8,83,0.00,,,0.00,WUHU216HW,2013-07-04 04:19:00,
2013-07-04 00:24:00,74.0,68.6,30.20,SW,225,0.0,1.8,83,0.00,,,0.00,WUHU216HW,2013-07-04 04:24:00,
2013-07-04 00:29:00,74.0,68.6,30.20,WSW,248,0.4,2.5,83,0.00,,,0.00,WUHU216HW,2013-07-04 04:29:00,
2013-07-04 00:34:00,74.0,68.6,30.20,East,90,0.0,2.5,83,0.00,,,0.00,WUHU216HW,2013-07-04 04:34:00,
2013-07-04 00:39:00,73.8,68.7,30.20,WNW,293,0.7,2.5,84,0.00,,,0.00,WUHU216HW,2013-07-04 04:39:00,
2013-07-04 00:44:00,73.8,68.7,30.20,WSW,248,0.4,2.7,84,0.00,,,0.00,WUHU216HW,2013-07-04 04:44:00,
2013-07-04 00:49:00,73.8,68.7,30.20,WSW,248,1.3,2.7,84,0.00,,,0.00,WUHU216HW,2013-07-04 04:49:00,
2013-07-04 00:55:00,73.6,68.5,30.20,SE,135,0.4,2.5,84,0.00,,,0.00,WUHU216HW,2013-07-04 04:55:00,
2013-07-04 01:00:00,73.6,68.5,30.20,SSW,203,1.8,2.7,84,0.00,,,0.00,WUHU216HW,2013-07-04 05:00:00,
2013-07-04 01:05:00,73.6,68.5,30.20,SSE,158,0.9,2.7,84,0.00,,,0.00,WUHU216HW,2013-07-04 05:05:00,
2013-07-04 01:10:00,73.6,68.8,30.20,SW,225,1.1,3.4,85,0.00,,,0.00,WUHU216HW,2013-07-04 05:10:00,
2013-07-04 01:15:00,73.6,68.8,30.20,WNW,293,1.8,4.3,85,0.00,,,0.00,WUHU216HW,2013-07-04 05:15:00,
2013-07-04 01:20:00,73.6,68.8,30.20,WSW,248,1.8,4.3,85,0.00,,,0.00,WUHU216HW,2013-07-04 05:20:00,
2013-07-04 01:25:00,73.4,68.6,30.20,West,270,0.0,2.2,85,0.00,,,0.00,WUHU216HW,2013-07-04 05:25:00,
2013-07-04 01:30:00,73.4,68.6,30.20,ESE,113,1.3,2.7,85,0.00,,,0.00,WUHU216HW,2013-07-04 05:30:00,
2013-07-04 01:35:00,73.4,69.0,30.20,South,180,1.1,3.8,86,0.00,,,0.00,WUHU216HW,2013-07-04 05:35:00,
2013-07-04 01:40:00,73.4,68.6,30.20,SSE,158,0.4,4.7,85,0.00,,,0.00,WUHU216HW,2013-07-04 05:40:00,
2013-07-04 01:46:00,73.4,68.6,30.20,SSW,203,3.4,4.7,85,0.00,,,0.00,WUHU216HW,2013-07-04 05:46:00,
2013-07-04 01:51:00,73.4,69.0,30.20,South,180,3.4,4.7,86,0.00,,,0.00,WUHU216HW,2013-07-04 05:51:00,
2013-07-04 01:56:00,73.6,69.2,30.20,ESE,113,1.1,3.4,86,0.00,,,0.00,WUHU216HW,2013-07-04 05:56:00,
2013-07-04 02:01:00,73.4,69.0,30.20,SW,225,2.2,2.2,86,0.00,,,0.00,WUHU216HW,2013-07-04 06:01:00,
2013-07-04 02:06:00,73.4,69.0,30.20,SSE,158,0.4,2.2,86,0.00,,,0.00,WUHU216HW,2013-07-04 06:06:00,
2013-07-04 02:11:00,73.4,69.0,30.19,SW,225,1.6,2.2,86,0.00,,,0.00,WUHU216HW,2013-07-04 06:11:00,
2013-07-04 02:16:00,73.4,69.0,30.20,SE,135,0.4,2.5,86,0.00,,,0.00,WUHU216HW,2013-07-04 06:16:00,
2013-07-04 02:21:00,73.2,68.8,30.19,South,180,1.8,2.5,86,0.00,,,0.00,WUHU216HW,2013-07-04 06:21:00,
2013-07-04 02:26:00,73.2,69.1,30.19,WNW,293,1.8,2.0,87,0.00,,,0.00,WUHU216HW,2013-07-04 06:26:00,
2013-07-04 02:31:00,73.2,69.1,30.19,WSW,248,1.3,2.5,87,0.00,,,0.00,WUHU216HW,2013-07-04 06:31:00,
2013-07-04 02:37:00,73.2,69.1,30.19,WSW,248,1.1,3.8,87,0.00,,,0.00,WUHU216HW,2013-07-04 06:37:00,
2013-07-04 02:42:00,73.2,69.1,30.19,WSW,248,0.2,3.8,87,0.00,,,0.00,WUHU216HW,2013-07-04 06:42:00,
2013-07-04 02:47:00,73.2,69.1,30.19,SE,135,0.4,2.5,87,0.00,,,0.00,WUHU216HW,2013-07-04 06:47:00,
2013-07-04 02:52:00,73.2,69.1,30.19,SSW,203,0.9,0.9,87,0.00,,,0.00,WUHU216HW,2013-07-04 06:52:00,
2013-07-04 02:57:00,73.1,69.0,30.19,SSE,158,0.4,1.8,87,0.00,,,0.00,WUHU216HW,2013-07-04 06:57:00,
2013-07-04 03:02:00,72.9,68.8,30.19,SSW,203,0.7,1.8,87,0.00,,,0.00,WUHU216HW,2013-07-04 07:02:00,
2013-07-04 03:07:00,72.9,68.8,30.19,SW,225,2.5,2.5,87,0.00,,,0.00,WUHU216HW,2013-07-04 07:07:00,
2013-07-04 03:12:00,72.9,68.8,30.18,West,270,1.1,2.5,87,0.00,,,0.00,WUHU216HW,2013-07-04 07:12:00,
2013-07-04 03:17:00,72.7,68.6,30.19,WNW,293,0.9,2.5,87,0.00,,,0.00,WUHU216HW,2013-07-04 07:17:00,
2013-07-04 03:23:00,72.5,68.4,30.18,West,270,1.3,2.0,87,0.00,,,0.00,WUHU216HW,2013-07-04 07:23:00,
2013-07-04 03:28:00,72.5,68.4,30.18,SW,225,2.0,2.0,87,0.00,,,0.00,WUHU216HW,2013-07-04 07:28:00,
2013-07-04 03:33:00,72.5,68.4,30.18,SW,225,0.7,2.0,87,0.00,,,0.00,WUHU216HW,2013-07-04 07:33:00,
2013-07-04 03:38:00,72.3,68.2,30.19,WSW,248,0.4,2.0,87,0.00,,,0.00,WUHU216HW,2013-07-04 07:38:00,
2013-07-04 03:43:00,72.3,68.2,30.18,WSW,248,2.9,2.9,87,0.00,,,0.00,WUHU216HW,2013-07-04 07:43:00,
2013-07-04 03:48:00,72.3,68.2,30.18,SW,225,1.6,2.9,87,0.00,,,0.00,WUHU216HW,2013-07-04 07:48:00,
2013-07-04 03:53:00,72.2,68.1,30.18,WSW,248,0.4,2.9,87,0.00,,,0.00,WUHU216HW,2013-07-04 07:53:00,
2013-07-04 03:58:00,72.2,68.1,30.18,SSE,158,0.7,2.9,87,0.00,,,0.00,WUHU216HW,2013-07-04 07:58:00,
2013-07-04 04:03:00,72.2,68.4,30.18,WSW,248,1.8,1.8,88,0.00,,,0.00,WUHU216HW,2013-07-04 08:03:00,
2013-07-04 04:09:00,72.0,68.3,30.18,SSE,158,1.1,3.4,88,0.00,,,0.00,WUHU216HW,2013-07-04 08:09:00,
2013-07-04 04:14:00,72.0,68.3,30.18,WNW,293,0.4,3.4,88,0.00,,,0.00,WUHU216HW,2013-07-04 08:14:00,
2013-07-04 04:19:00,72.0,68.3,30.18,NW,315,1.1,1.1,88,0.00,,,0.00,WUHU216HW,2013-07-04 08:19:00,
2013-07-04 04:24:00,71.8,68.1,30.18,ESE,113,1.3,2.0,88,0.00,,,0.00,WUHU216HW,2013-07-04 08:24:00,
2013-07-04 04:29:00,71.8,68.1,30.18,WSW,248,3.6,3.6,88,0.00,,,0.00,WUHU216HW,2013-07-04 08:29:00,
2013-07-04 04:34:00,71.8,68.1,30.19,WNW,293,2.0,3.6,88,0.00,,,0.00,WUHU216HW,2013-07-04 08:34:00,
2013-07-04 04:39:00,71.8,68.4,30.19,WSW,248,1.8,3.6,89,0.00,,,0.00,WUHU216HW,2013-07-04 08:39:00,
2013-07-04 04:44:00,71.8,68.4,30.18,SSW,203,4.7,4.7,89,0.00,,,0.00,WUHU216HW,2013-07-04 08:44:00,
2013-07-04 04:50:00,71.8,68.4,30.19,SW,225,4.3,4.7,89,0.00,,,0.00,WUHU216HW,2013-07-04 08:50:00,
2013-07-04 04:55:00,71.8,68.4,30.19,SW,225,2.5,4.7,89,0.00,,,0.00,WUHU216HW,2013-07-04 08:55:00,
2013-07-04 05:00:00,71.8,68.4,30.18,West,270,0.4,4.3,89,0.00,,,0.00,WUHU216HW,2013-07-04 09:00:00,
2013-07-04 05:05:00,71.6,68.2,30.19,West,270,1.6,2.7,89,0.00,,,0.00,WUHU216HW,2013-07-04 09:05:00,
2013-07-04 05:10:00,71.6,68.2,30.19,West,270,1.1,4.0,89,0.00,,,0.00,WUHU216HW,2013-07-04 09:10:00,
2013-07-04 05:15:00,71.6,68.2,30.19,WSW,248,0.7,5.4,89,0.00,,,0.00,WUHU216HW,2013-07-04 09:15:00,
2013-07-04 05:20:00,71.6,68.2,30.19,WSW,248,0.4,5.4,89,0.00,,,0.00,WUHU216HW,2013-07-04 09:20:00,
2013-07-04 05:25:00,71.6,68.2,30.19,South,180,1.1,2.5,89,0.00,,,0.00,WUHU216HW,2013-07-04 09:25:00,
2013-07-04 05:31:00,71.6,68.2,30.19,WNW,293,2.9,2.9,89,0.00,,,0.00,WUHU216HW,2013-07-04 09:31:00,
2013-07-04 05:36:00,71.6,67.9,30.19,SW,225,2.5,3.8,88,0.00,,,0.00,WUHU216HW,2013-07-04 09:36:00,
2013-07-04 05:41:00,71.4,68.0,30.19,WSW,248,2.5,3.8,89,0.00,,,0.00,WUHU216HW,2013-07-04 09:41:00,
2013-07-04 05:46:00,71.4,68.0,30.20,WNW,293,2.5,2.5,89,0.00,,,0.00,WUHU216HW,2013-07-04 09:46:00,
2013-07-04 05:51:00,71.4,68.0,30.20,South,180,1.1,2.5,89,0.00,,,0.00,WUHU216HW,2013-07-04 09:51:00,
2013-07-04 05:56:00,71.4,68.0,30.20,WSW,248,0.4,2.5,89,0.00,,,0.00,WUHU216HW,2013-07-04 09:56:00,
2013-07-04 06:01:00,71.4,68.0,30.20,South,180,2.0,2.5,89,0.00,,,0.00,WUHU216HW,2013-07-04 10:01:00,
2013-07-04 06:06:00,71.4,68.0,30.20,SW,225,3.4,3.4,89,0.00,,,0.00,WUHU216HW,2013-07-04 10:06:00,
2013-07-04 06:12:00,71.4,68.0,30.20,NW,315,1.6,3.4,89,0.00,,,0.00,WUHU216HW,2013-07-04 10:12:00,
2013-07-04 06:17:00,71.4,68.0,30.20,WSW,248,2.7,3.4,89,0.00,,,0.00,WUHU216HW,2013-07-04 10:17:00,
2013-07-04 06:22:00,71.4,68.0,30.20,WSW,248,3.1,3.1,89,0.00,,,0.00,WUHU216HW,2013-07-04 10:22:00,
2013-07-04 06:27:00,71.4,68.0,30.20,WSW,248,0.9,3.1,89,0.00,,,0.00,WUHU216HW,2013-07-04 10:27:00,
2013-07-04 06:32:00,71.4,68.0,30.20,WSW,248,1.1,3.1,89,0.00,,,0.00,WUHU216HW,2013-07-04 10:32:00,
2013-07-04 06:37:00,71.4,68.0,30.20,WSW,248,2.0,3.8,89,0.00,,,0.00,WUHU216HW,2013-07-04 10:37:00,
2013-07-04 06:42:00,71.6,68.2,30.20,West,270,1.8,3.8,89,0.00,,,0.00,WUHU216HW,2013-07-04 10:42:00,
2013-07-04 06:48:00,71.6,68.2,30.21,NNW,338,1.1,2.9,89,0.00,,,0.00,WUHU216HW,2013-07-04 10:48:00,
2013-07-04 06:53:00,71.6,68.2,30.21,West,270,0.4,2.5,89,0.00,,,0.00,WUHU216HW,2013-07-04 10:53:00,
2013-07-04 06:58:00,71.8,68.4,30.21,WSW,248,2.5,4.3,89,0.00,,,0.00,WUHU216HW,2013-07-04 10:58:00,
2013-07-04 07:03:00,71.8,68.4,30.21,WSW,248,3.8,4.3,89,0.00,,,0.00,WUHU216HW,2013-07-04 11:03:00,
2013-07-04 07:08:00,71.8,68.1,30.21,West,270,1.1,4.3,88,0.00,,,0.00,WUHU216HW,2013-07-04 11:08:00,
2013-07-04 07:13:00,71.8,68.1,30.21,WNW,293,1.1,3.8,88,0.00,,,0.00,WUHU216HW,2013-07-04 11:13:00,
2013-07-04 07:18:00,71.8,68.1,30.21,WSW,248,3.4,4.3,88,0.00,,,0.00,WUHU216HW,2013-07-04 11:18:00,
2013-07-04 07:23:00,72.0,68.3,30.21,SSE,158,2.9,4.7,88,0.00,,,0.00,WUHU216HW,2013-07-04 11:23:00,
2013-07-04 07:28:00,72.0,68.3,30.21,SW,225,5.4,9.8,88,0.00,,,0.00,WUHU216HW,2013-07-04 11:28:00,
2013-07-04 07:33:00,72.0,68.3,30.22,SW,225,2.5,9.8,88,0.00,,,0.00,WUHU216HW,2013-07-04 11:33:00,
2013-07-04 07:39:00,72.2,68.4,30.22,SW,225,4.0,5.4,88,0.00,,,0.00,WUHU216HW,2013-07-04 11:39:00,
2013-07-04 07:44:00,72.2,68.4,30.21,SW,225,1.8,4.7,88,0.00,,,0.00,WUHU216HW,2013-07-04 11:44:00,
2013-07-04 07:49:00,72.2,68.1,30.21,West,270,4.0,6.0,87,0.00,,,0.00,WUHU216HW,2013-07-04 11:49:00,
2013-07-04 07:54:00,72.3,68.2,30.21,SW,225,1.1,6.0,87,0.00,,,0.00,WUHU216HW,2013-07-04 11:54:00,
2013-07-04 07:59:00,72.5,68.4,30.21,WSW,248,2.5,4.0,87,0.00,,,0.00,WUHU216HW,2013-07-04 11:59:00,
2013-07-04 08:04:00,72.5,68.4,30.21,SW,225,1.6,4.0,87,0.00,,,0.00,WUHU216HW,2013-07-04 12:04:00,
2013-07-04 08:09:00,72.7,68.6,30.22,SW,225,3.1,3.8,87,0.00,,,0.00,WUHU216HW,2013-07-04 12:09:00,
2013-07-04 08:14:00,72.9,68.8,30.22,SE,135,1.3,4.9,87,0.00,,,0.00,WUHU216HW,2013-07-04 12:14:00,
2013-07-04 08:19:00,73.1,68.7,30.22,SW,225,0.4,5.6,86,0.00,,,0.00,WUHU216HW,2013-07-04 12:19:00,
2013-07-04 08:24:00,73.2,68.8,30.22,West,270,5.4,5.6,86,0.00,,,0.00,WUHU216HW,2013-07-04 12:24:00,
2013-07-04 08:29:00,73.4,68.6,30.22,SE,135,0.4,5.4,85,0.00,,,0.00,WUHU216HW,2013-07-04 12:29:00,
2013-07-04 08:35:00,73.4,68.6,30.22,WSW,248,3.6,3.8,85,0.00,,,0.00,WUHU216HW,2013-07-04 12:35:00,
2013-07-04 08:40:00,73.6,68.8,30.22,SW,225,1.8,3.8,85,0.00,,,0.00,WUHU216HW,2013-07-04 12:40:00,
2013-07-04 08:45:00,74.0,69.2,30.22,SSE,158,2.2,6.5,85,0.00,,,0.00,WUHU216HW,2013-07-04 12:45:00,
2013-07-04 08:50:00,74.3,69.5,30.22,NW,315,2.9,6.5,85,0.00,,,0.00,WUHU216HW,2013-07-04 12:50:00,
2013-07-04 08:55:00,74.3,69.2,30.22,WNW,293,4.0,6.3,84,0.00,,,0.00,WUHU216HW,2013-07-04 12:55:00,
2013-07-04 09:00:00,74.7,69.3,30.22,WSW,248,1.8,6.3,83,0.00,,,0.00,WUHU216HW,2013-07-04 13:00:00,
2013-07-04 09:05:00,74.9,69.8,30.22,SSW,203,3.1,4.7,84,0.00,,,0.00,WUHU216HW,2013-07-04 13:05:00,
2013-07-04 09:10:00,75.0,69.5,30.22,SSE,158,5.8,5.8,83,0.00,,,0.00,WUHU216HW,2013-07-04 13:10:00,
2013-07-04 09:15:00,75.2,69.4,30.22,East,90,1.1,5.8,82,0.00,,,0.00,WUHU216HW,2013-07-04 13:15:00,
2013-07-04 09:20:00,75.4,69.6,30.22,WSW,248,4.7,6.7,82,0.00,,,0.00,WUHU216HW,2013-07-04 13:20:00,
2013-07-04 09:26:00,75.4,69.2,30.22,SW,225,2.7,6.7,81,0.00,,,0.00,WUHU216HW,2013-07-04 13:26:00,
2013-07-04 09:31:00,75.6,69.8,30.22,SE,135,1.1,5.8,82,0.00,,,0.00,WUHU216HW,2013-07-04 13:31:00,
2013-07-04 09:36:00,75.6,69.4,30.23,SW,225,2.2,5.8,81,0.00,,,0.00,WUHU216HW,2013-07-04 13:36:00,
2013-07-04 09:41:00,75.8,69.6,30.23,South,180,5.4,7.6,81,0.00,,,0.00,WUHU216HW,2013-07-04 13:41:00,
2013-07-04 09:46:00,75.8,69.3,30.23,WSW,248,5.4,7.6,80,0.00,,,0.00,WUHU216HW,2013-07-04 13:46:00,
2013-07-04 09:51:00,75.8,69.6,30.22,WSW,248,3.4,5.4,81,0.00,,,0.00,WUHU216HW,2013-07-04 13:51:00,
2013-07-04 09:56:00,75.9,69.7,30.22,SE,135,1.8,5.4,81,0.00,,,0.00,WUHU216HW,2013-07-04 13:56:00,
2013-07-04 10:01:00,76.5,69.6,30.22,WSW,248,1.1,4.7,79,0.00,,,0.00,WUHU216HW,2013-07-04 14:01:00,
2013-07-04 10:07:00,76.5,70.0,30.22,SW,225,6.7,6.7,80,0.00,,,0.00,WUHU216HW,2013-07-04 14:07:00,
2013-07-04 10:12:00,76.7,69.8,30.22,WSW,248,3.4,6.7,79,0.00,,,0.00,WUHU216HW,2013-07-04 14:12:00,
2013-07-04 10:17:00,76.8,69.5,30.22,WSW,248,1.8,6.7,78,0.00,,,0.00,WUHU216HW,2013-07-04 14:17:00,
2013-07-04 10:22:00,76.8,69.5,30.22,WSW,248,2.0,3.4,78,0.00,,,0.00,WUHU216HW,2013-07-04 14:22:00,
2013-07-04 10:27:00,76.8,69.5,30.22,SE,135,0.9,4.0,78,0.00,,,0.00,WUHU216HW,2013-07-04 14:27:00,
2013-07-04 10:32:00,76.8,69.2,30.22,SW,225,3.4,4.7,77,0.00,,,0.00,WUHU216HW,2013-07-04 14:32:00,
2013-07-04 10:37:00,76.8,69.5,30.22,WNW,293,0.7,4.7,78,0.00,,,0.00,WUHU216HW,2013-07-04 14:37:00,
2013-07-04 10:42:00,77.0,69.7,30.22,WSW,248,2.7,4.7,78,0.00,,,0.00,WUHU216HW,2013-07-04 14:42:00,
2013-07-04 10:43:00,77.0,69.7,30.22,SW,225,0.4,4.7,78,0.00,,,0.00,WUHU216HW,2013-07-04 14:43:00,
2013-07-04 10:49:00,77.4,70.5,30.22,West,270,2.5,4.0,79,0.00,,,0.00,WUHU216HW,2013-07-04 14:49:00,
2013-07-04 10:54:00,77.7,70.1,30.22,West,270,2.0,4.7,77,0.00,,,0.00,WUHU216HW,2013-07-04 14:54:00,
2013-07-04 10:59:00,78.1,70.4,30.22,SE,135,1.3,4.7,77,0.00,,,0.00,WUHU216HW,2013-07-04 14:59:00,
2013-07-04 11:04:00,78.3,70.3,30.22,WSW,248,3.4,4.7,76,0.00,,,0.00,WUHU216HW,2013-07-04 15:04:00,
2013-07-04 11:09:00,78.5,70.1,30.21,SW,225,4.9,6.7,75,0.00,,,0.00,WUHU216HW,2013-07-04 15:09:00,
2013-07-04 11:14:00,78.6,70.2,30.22,SSE,158,2.2,6.7,75,0.00,,,0.00,WUHU216HW,2013-07-04 15:14:00,
2013-07-04 11:19:00,78.6,69.8,30.22,SE,135,1.8,4.3,74,0.00,,,0.00,WUHU216HW,2013-07-04 15:19:00,
2013-07-04 11:24:00,78.8,70.4,30.22,WSW,248,1.8,6.5,75,0.00,,,0.00,WUHU216HW,2013-07-04 15:24:00,
2013-07-04 11:29:00,78.6,69.8,30.22,WSW,248,2.5,6.5,74,0.00,,,0.00,WUHU216HW,2013-07-04 15:29:00,
2013-07-04 11:34:00,78.8,69.6,30.21,West,270,3.4,6.5,73,0.00,,,0.00,WUHU216HW,2013-07-04 15:34:00,
2013-07-04 11:39:00,78.8,70.0,30.21,SSE,158,1.3,5.8,74,0.00,,,0.00,WUHU216HW,2013-07-04 15:39:00,
2013-07-04 11:44:00,79.2,69.2,30.21,SSE,158,2.9,4.9,71,0.00,,,0.00,WUHU216HW,2013-07-04 15:44:00,
2013-07-04 11:50:00,79.2,69.6,30.21,ESE,113,2.2,4.9,72,0.00,,,0.00,WUHU216HW,2013-07-04 15:50:00,
2013-07-04 11:52:00,79.4,70.2,30.21,SE,135,2.5,4.9,73,0.00,,,0.00,WUHU216HW,2013-07-04 15:52:00,
2013-07-04 11:56:00,79.5,69.9,30.21,WSW,248,4.7,8.3,72,0.00,,,0.00,WUHU216HW,2013-07-04 15:56:00,
2013-07-04 12:02:00,79.5,69.5,30.21,WSW,248,2.5,8.3,71,0.00,,,0.00,WUHU216HW,2013-07-04 16:02:00,
2013-07-04 12:07:00,79.5,69.9,30.21,WSW,248,5.6,5.6,72,0.00,,,0.00,WUHU216HW,2013-07-04 16:07:00,
2013-07-04 12:12:00,79.4,69.8,30.21,SE,135,1.8,6.9,72,0.00,,,0.00,WUHU216HW,2013-07-04 16:12:00,
2013-07-04 12:17:00,79.5,70.3,30.21,WSW,248,1.8,6.9,73,0.00,,,0.00,WUHU216HW,2013-07-04 16:17:00,
2013-07-04 12:22:00,79.5,69.9,30.20,WNW,293,1.8,4.7,72,0.00,,,0.00,WUHU216HW,2013-07-04 16:22:00,
2013-07-04 12:27:00,79.7,70.1,30.20,SW,225,1.8,4.7,72,0.00,,,0.00,WUHU216HW,2013-07-04 16:27:00,
2013-07-04 12:32:00,80.1,70.5,30.20,South,180,1.8,4.7,72,0.00,,,0.00,WUHU216HW,2013-07-04 16:32:00,
2013-07-04 12:37:00,80.1,70.5,30.20,NE,45,3.4,4.3,72,0.00,,,0.00,WUHU216HW,2013-07-04 16:37:00,
2013-07-04 12:42:00,80.4,70.8,30.20,SSE,158,1.1,4.5,72,0.00,,,0.00,WUHU216HW,2013-07-04 16:42:00,
2013-07-04 12:48:00,80.8,71.5,30.20,SSW,203,3.4,4.5,73,0.00,,,0.00,WUHU216HW,2013-07-04 16:48:00,
2013-07-04 12:53:00,81.2,71.1,30.20,South,180,2.0,4.9,71,0.00,,,0.00,WUHU216HW,2013-07-04 16:53:00,
2013-07-04 12:58:00,81.3,71.2,30.20,West,270,0.4,4.9,71,0.00,,,0.00,WUHU216HW,2013-07-04 16:58:00,
2013-07-04 13:03:00,81.3,71.2,30.20,SW,225,1.6,2.2,71,0.00,,,0.00,WUHU216HW,2013-07-04 17:03:00,
2013-07-04 13:08:00,81.5,71.4,30.20,NNE,23,1.8,4.0,71,0.00,,,0.00,WUHU216HW,2013-07-04 17:08:00,
2013-07-04 13:13:00,81.5,71.4,30.20,South,180,2.2,4.0,71,0.00,,,0.00,WUHU216HW,2013-07-04 17:13:00,
2013-07-04 13:18:00,81.5,71.4,30.20,SSE,158,1.1,3.6,71,0.00,,,0.00,WUHU216HW,2013-07-04 17:18:00,
2013-07-04 13:23:00,81.5,71.8,30.20,South,180,2.5,3.6,72,0.00,,,0.00,WUHU216HW,2013-07-04 17:23:00,
2013-07-04 13:28:00,81.9,71.4,30.19,NW,315,1.8,6.5,70,0.00,,,0.00,WUHU216HW,2013-07-04 17:28:00,
2013-07-04 13:33:00,81.7,71.6,30.19,SSW,203,2.9,6.5,71,0.00,,,0.00,WUHU216HW,2013-07-04 17:33:00,
2013-07-04 13:38:00,81.7,71.6,30.19,South,180,0.4,2.9,71,0.00,,,0.00,WUHU216HW,2013-07-04 17:38:00,
2013-07-04 13:44:00,81.5,71.4,30.19,SW,225,3.1,4.0,71,0.00,,,0.00,WUHU216HW,2013-07-04 17:44:00,
2013-07-04 13:49:00,81.5,71.8,30.19,South,180,3.4,4.0,72,0.00,,,0.00,WUHU216HW,2013-07-04 17:49:00,
2013-07-04 13:54:00,81.7,72.0,30.19,WSW,248,1.8,4.0,72,0.00,,,0.00,WUHU216HW,2013-07-04 17:54:00,
2013-07-04 13:59:00,81.7,71.6,30.19,SSE,158,1.6,4.9,71,0.00,,,0.00,WUHU216HW,2013-07-04 17:59:00,
2013-07-04 14:04:00,81.7,71.6,30.19,WSW,248,4.0,4.9,71,0.00,,,0.00,WUHU216HW,2013-07-04 18:04:00,
2013-07-04 14:09:00,81.5,71.4,30.18,West,270,1.8,4.0,71,0.00,,,0.00,WUHU216HW,2013-07-04 18:09:00,
2013-07-04 14:14:00,81.9,72.2,30.18,SW,225,2.9,4.0,72,0.00,,,0.00,WUHU216HW,2013-07-04 18:14:00,
2013-07-04 14:19:00,82.2,72.5,30.18,SSE,158,3.4,3.4,72,0.00,,,0.00,WUHU216HW,2013-07-04 18:19:00,
2013-07-04 14:24:00,82.6,72.1,30.19,West,270,4.3,8.3,70,0.00,,,0.00,WUHU216HW,2013-07-04 18:24:00,
2013-07-04 14:29:00,82.6,72.1,30.18,WNW,293,2.2,8.3,70,0.00,,,0.00,WUHU216HW,2013-07-04 18:29:00,
2013-07-04 14:35:00,83.0,71.6,30.18,West,270,4.0,6.3,68,0.00,,,0.00,WUHU216HW,2013-07-04 18:35:00,
2013-07-04 14:40:00,83.0,72.0,30.18,WSW,248,2.5,6.0,69,0.00,,,0.00,WUHU216HW,2013-07-04 18:40:00,
2013-07-04 14:45:00,83.3,71.9,30.18,ESE,113,2.0,6.0,68,0.00,,,0.00,WUHU216HW,2013-07-04 18:45:00,
2013-07-04 14:50:00,83.5,72.5,30.17,South,180,2.5,2.7,69,0.00,,,0.00,WUHU216HW,2013-07-04 18:50:00,
2013-07-04 14:55:00,83.7,71.8,30.17,West,270,2.9,5.6,67,0.00,,,0.00,WUHU216HW,2013-07-04 18:55:00,
2013-07-04 15:00:00,83.7,71.4,30.17,East,90,3.1,7.6,66,0.00,,,0.00,WUHU216HW,2013-07-04 19:00:00,
2013-07-04 15:05:00,83.9,71.6,30.17,SE,135,2.5,7.6,66,0.00,,,0.00,WUHU216HW,2013-07-04 19:05:00,
2013-07-04 15:10:00,83.9,71.6,30.17,WSW,248,1.8,5.6,66,0.00,,,0.00,WUHU216HW,2013-07-04 19:10:00,
2013-07-04 15:15:00,84.0,72.1,30.17,SE,135,2.2,6.9,67,0.00,,,0.00,WUHU216HW,2013-07-04 19:15:00,
2013-07-04 15:21:00,84.2,72.3,30.16,SSE,158,0.7,6.9,67,0.00,,,0.00,WUHU216HW,2013-07-04 19:21:00,
2013-07-04 15:26:00,84.0,71.7,30.16,SW,225,6.7,6.7,66,0.00,,,0.00,WUHU216HW,2013-07-04 19:26:00,
2013-07-04 15:31:00,83.9,71.6,30.16,East,90,2.5,6.7,66,0.00,,,0.00,WUHU216HW,2013-07-04 19:31:00,
2013-07-04 15:36:00,84.0,72.1,30.16,NW,315,4.0,6.7,67,0.00,,,0.00,WUHU216HW,2013-07-04 19:36:00,
2013-07-04 15:41:00,84.2,72.3,30.16,West,270,3.4,4.0,67,0.00,,,0.00,WUHU216HW,2013-07-04 19:41:00,
2013-07-04 15:46:00,84.2,71.4,30.16,SSW,203,4.0,4.0,65,0.00,,,0.00,WUHU216HW,2013-07-04 19:46:00,
2013-07-04 15:51:00,84.4,72.1,30.16,SSW,203,3.8,4.0,66,0.00,,,0.00,WUHU216HW,2013-07-04 19:51:00,
2013-07-04 15:56:00,84.4,72.1,30.16,WNW,293,2.5,3.8,66,0.00,,,0.00,WUHU216HW,2013-07-04 19:56:00,
2013-07-04 16:01:00,84.8,72.9,30.15,SE,135,1.6,3.8,67,0.00,,,0.00,WUHU216HW,2013-07-04 20:01:00,
2013-07-04 16:06:00,84.8,72.4,30.15,SE,135,2.5,3.4,66,0.00,,,0.00,WUHU216HW,2013-07-04 20:06:00,
2013-07-04 16:11:00,84.8,72.4,30.16,SSW,203,1.6,4.5,66,0.00,,,0.00,WUHU216HW,2013-07-04 20:11:00,
2013-07-04 16:16:00,84.8,72.4,30.15,South,180,1.1,5.4,66,0.00,,,0.00,WUHU216HW,2013-07-04 20:16:00,
2013-07-04 16:21:00,84.9,72.1,30.15,South,180,1.3,5.4,65,0.00,,,0.00,WUHU216HW,2013-07-04 20:21:00,
2013-07-04 16:27:00,84.9,72.5,30.15,South,180,1.1,4.0,66,0.00,,,0.00,WUHU216HW,2013-07-04 20:27:00,
2013-07-04 16:32:00,85.1,72.3,30.15,ESE,113,2.2,4.0,65,0.00,,,0.00,WUHU216HW,2013-07-04 20:32:00,
2013-07-04 16:37:00,84.9,72.5,30.15,SW,225,2.5,2.5,66,0.00,,,0.00,WUHU216HW,2013-07-04 20:37:00,
2013-07-04 16:42:00,84.8,72.4,30.15,SSW,203,0.7,3.8,66,0.00,,,0.00,WUHU216HW,2013-07-04 20:42:00,
2013-07-04 16:47:00,84.6,72.3,30.15,West,270,1.8,3.8,66,0.00,,,0.00,WUHU216HW,2013-07-04 20:47:00,
2013-07-04 16:52:00,84.8,72.9,30.15,ENE,68,0.7,2.9,67,0.00,,,0.00,WUHU216HW,2013-07-04 20:52:00,
2013-07-04 16:57:00,85.3,72.9,30.15,SSE,158,1.6,4.7,66,0.00,,,0.00,WUHU216HW,2013-07-04 20:57:00,
2013-07-04 17:02:00,85.7,73.3,30.15,SSE,158,2.0,4.7,66,0.00,,,0.00,WUHU216HW,2013-07-04 21:02:00,
2013-07-04 17:07:00,86.0,73.6,30.15,WNW,293,1.3,4.7,66,0.00,,,0.00,WUHU216HW,2013-07-04 21:07:00,
2013-07-04 17:12:00,86.0,72.7,30.15,SSW,203,1.1,6.5,64,0.00,,,0.00,WUHU216HW,2013-07-04 21:12:00,
2013-07-04 17:17:00,86.2,72.4,30.15,SE,135,1.1,7.2,63,0.00,,,0.00,WUHU216HW,2013-07-04 21:17:00,
2013-07-04 17:23:00,86.7,73.4,30.15,NNE,23,3.1,7.2,64,0.00,,,0.00,WUHU216HW,2013-07-04 21:23:00,
2013-07-04 17:28:00,86.9,73.5,30.15,SSE,158,0.9,4.0,64,0.00,,,0.00,WUHU216HW,2013-07-04 21:28:00,
2013-07-04 17:33:00,86.9,72.6,30.14,WSW,248,3.4,3.4,62,0.00,,,0.00,WUHU216HW,2013-07-04 21:33:00,
2013-07-04 17:38:00,86.4,73.1,30.14,South,180,0.2,3.4,64,0.00,,,0.00,WUHU216HW,2013-07-04 21:38:00,
2013-07-04 17:43:00,86.2,72.9,30.14,SE,135,1.1,4.0,64,0.00,,,0.00,WUHU216HW,2013-07-04 21:43:00,
2013-07-04 17:48:00,85.7,72.4,30.15,SSE,158,2.0,4.0,64,0.00,,,0.00,WUHU216HW,2013-07-04 21:48:00,
2013-07-04 17:53:00,86.0,73.6,30.14,WNW,293,0.7,4.0,66,0.00,,,0.00,WUHU216HW,2013-07-04 21:53:00,
2013-07-04 17:58:00,86.6,73.7,30.14,SE,135,1.3,2.2,65,0.00,,,0.00,WUHU216HW,2013-07-04 21:58:00,
2013-07-04 18:03:00,86.9,73.5,30.14,NNE,23,1.1,5.1,64,0.00,,,0.00,WUHU216HW,2013-07-04 22:03:00,
2013-07-04 18:08:00,87.3,73.9,30.14,SSE,158,1.1,5.1,64,0.00,,,0.00,WUHU216HW,2013-07-04 22:08:00,
2013-07-04 18:13:00,87.5,73.6,30.14,SE,135,1.3,2.5,63,0.00,,,0.00,WUHU216HW,2013-07-04 22:13:00,
2013-07-04 18:18:00,87.5,72.7,30.14,West,270,3.4,3.4,61,0.00,,,0.00,WUHU216HW,2013-07-04 22:18:00,
2013-07-04 18:23:00,87.5,72.7,30.14,SSE,158,1.6,3.4,61,0.00,,,0.00,WUHU216HW,2013-07-04 22:23:00,
2013-07-04 18:28:00,88.0,73.2,30.15,SW,225,0.9,4.9,61,0.00,,,0.00,WUHU216HW,2013-07-04 22:28:00,
2013-07-04 18:33:00,88.2,72.8,30.14,North,0,2.5,4.9,60,0.00,,,0.00,WUHU216HW,2013-07-04 22:33:00,
2013-07-04 18:39:00,88.4,74.0,30.14,SE,135,2.0,2.5,62,0.00,,,0.00,WUHU216HW,2013-07-04 22:39:00,
2013-07-04 18:44:00,88.7,74.3,30.15,SE,135,2.0,2.5,62,0.00,,,0.00,WUHU216HW,2013-07-04 22:44:00,
2013-07-04 18:49:00,88.9,74.0,30.14,SE,135,0.9,4.3,61,0.00,,,0.00,WUHU216HW,2013-07-04 22:49:00,
2013-07-04 18:54:00,89.8,74.4,30.14,SSE,158,1.1,4.3,60,0.00,,,0.00,WUHU216HW,2013-07-04 22:54:00,
2013-07-04 18:59:00,90.9,74.4,30.15,ENE,68,0.4,1.8,58,0.00,,,0.00,WUHU216HW,2013-07-04 22:59:00,
2013-07-04 19:04:00,90.9,74.4,30.15,ESE,113,1.8,3.1,58,0.00,,,0.00,WUHU216HW,2013-07-04 23:04:00,
2013-07-04 19:09:00,90.2,73.7,30.14,WSW,248,2.2,4.5,58,0.00,,,0.00,WUHU216HW,2013-07-04 23:09:00,
2013-07-04 19:14:00,89.6,73.1,30.14,North,0,0.4,4.5,58,0.00,,,0.00,WUHU216HW,2013-07-04 23:14:00,
2013-07-04 19:19:00,88.2,72.3,30.15,SSE,158,0.4,4.5,59,0.00,,,0.00,WUHU216HW,2013-07-04 23:19:00,
2013-07-04 19:24:00,86.9,71.6,30.15,SSE,158,0.7,4.5,60,0.00,,,0.00,WUHU216HW,2013-07-04 23:24:00,
2013-07-04 19:30:00,86.2,71.4,30.15,SSE,158,2.5,2.5,61,0.00,,,0.00,WUHU216HW,2013-07-04 23:30:00,
2013-07-04 19:35:00,85.5,71.3,30.15,SSE,158,2.0,2.5,62,0.00,,,0.00,WUHU216HW,2013-07-04 23:35:00,
2013-07-04 19:40:00,84.8,71.5,30.15,SSW,203,1.8,2.7,64,0.00,,,0.00,WUHU216HW,2013-07-04 23:40:00,
2013-07-04 19:45:00,84.6,71.4,30.15,South,180,0.9,2.7,64,0.00,,,0.00,WUHU216HW,2013-07-04 23:45:00,
2013-07-04 19:50:00,84.2,71.4,30.15,SE,135,0.4,2.7,65,0.00,,,0.00,WUHU216HW,2013-07-04 23:50:00,
2013-07-04 19:55:00,83.7,70.9,30.16,SW,225,1.3,5.1,65,0.00,,,0.00,WUHU216HW,2013-07-04 23:55:00,
2013-07-04 20:00:00,83.3,71.0,30.15,North,0,0.2,5.1,66,0.00,,,0.00,WUHU216HW,2013-07-05 00:00:00,
2013-07-04 20:05:00,83.0,70.7,30.15,ENE,68,0.2,2.7,66,0.00,,,0.00,WUHU216HW,2013-07-05 00:05:00,
2013-07-04 20:10:00,82.6,70.8,30.15,SE,135,0.7,3.4,67,0.00,,,0.00,WUHU216HW,2013-07-05 00:10:00,
2013-07-04 20:15:00,82.1,70.3,30.15,West,270,1.6,3.4,67,0.00,,,0.00,WUHU216HW,2013-07-05 00:15:00,
2013-07-04 20:20:00,81.5,69.7,30.16,SE,135,0.9,2.7,67,0.00,,,0.00,WUHU216HW,2013-07-05 00:20:00,
2013-07-04 20:25:00,81.3,70.0,30.15,SW,225,0.4,2.7,68,0.00,,,0.00,WUHU216HW,2013-07-05 00:25:00,
2013-07-04 20:31:00,81.2,69.9,30.16,WSW,248,0.2,3.6,68,0.00,,,0.00,WUHU216HW,2013-07-05 00:31:00,
2013-07-04 20:36:00,80.6,69.7,30.16,SW,225,2.2,4.3,69,0.00,,,0.00,WUHU216HW,2013-07-05 00:36:00,
2013-07-04 20:41:00,80.4,69.5,30.16,SE,135,2.7,4.3,69,0.00,,,0.00,WUHU216HW,2013-07-05 00:41:00,
2013-07-04 20:46:00,80.1,68.8,30.16,WSW,248,1.3,3.4,68,0.00,,,0.00,WUHU216HW,2013-07-05 00:46:00,
2013-07-04 20:51:00,79.7,68.9,30.16,WSW,248,2.0,3.4,69,0.00,,,0.00,WUHU216HW,2013-07-05 00:51:00,
2013-07-04 20:56:00,79.5,68.7,30.16,ESE,113,0.4,2.0,69,0.00,,,0.00,WUHU216HW,2013-07-05 00:56:00,
2013-07-04 21:01:00,79.4,68.6,30.16,ESE,113,0.9,2.7,69,0.00,,,0.00,WUHU216HW,2013-07-05 01:01:00,
2013-07-04 21:06:00,79.0,68.6,30.16,SSW,203,1.8,2.7,70,0.00,,,0.00,WUHU216HW,2013-07-05 01:06:00,
2013-07-04 21:12:00,79.0,69.0,30.16,SE,135,1.1,4.0,71,0.00,,,0.00,WUHU216HW,2013-07-05 01:12:00,
2013-07-04 21:17:00,78.6,68.6,30.16,South,180,0.9,4.0,71,0.00,,,0.00,WUHU216HW,2013-07-05 01:17:00,
2013-07-04 21:22:00,78.5,68.5,30.16,WSW,248,1.3,3.4,71,0.00,,,0.00,WUHU216HW,2013-07-05 01:22:00,
2013-07-04 21:27:00,78.3,68.3,30.16,SE,135,3.4,3.6,71,0.00,,,0.00,WUHU216HW,2013-07-05 01:27:00,
2013-07-04 21:32:00,78.1,68.1,30.16,SW,225,2.5,3.6,71,0.00,,,0.00,WUHU216HW,2013-07-05 01:32:00,
2013-07-04 21:37:00,77.9,68.3,30.17,SSE,158,1.6,3.4,72,0.00,,,0.00,WUHU216HW,2013-07-05 01:37:00,
2013-07-04 21:42:00,77.9,68.3,30.17,ENE,68,0.2,2.5,72,0.00,,,0.00,WUHU216HW,2013-07-05 01:42:00,
2013-07-04 21:47:00,77.7,68.1,30.17,South,180,0.4,2.2,72,0.00,,,0.00,WUHU216HW,2013-07-05 01:47:00,
2013-07-04 21:53:00,77.6,68.1,30.17,WSW,248,0.4,3.8,72,0.00,,,0.00,WUHU216HW,2013-07-05 01:53:00,
2013-07-04 21:58:00,77.6,68.4,30.17,WNW,293,0.9,3.8,73,0.00,,,0.00,WUHU216HW,2013-07-05 01:58:00,
2013-07-04 22:03:00,77.4,68.3,30.17,SW,225,1.8,2.5,73,0.00,,,0.00,WUHU216HW,2013-07-05 02:03:00,
2013-07-04 22:08:00,77.2,68.1,30.17,SSE,158,3.4,3.4,73,0.00,,,0.00,WUHU216HW,2013-07-05 02:08:00,
2013-07-04 22:13:00,77.2,68.1,30.18,SW,225,0.2,3.4,73,0.00,,,0.00,WUHU216HW,2013-07-05 02:13:00,
2013-07-04 22:18:00,77.0,68.3,30.18,SW,225,1.3,2.5,74,0.00,,,0.00,WUHU216HW,2013-07-05 02:18:00,
2013-07-04 22:23:00,76.8,68.1,30.18,West,270,0.4,2.5,74,0.00,,,0.00,WUHU216HW,2013-07-05 02:23:00,
2013-07-04 22:28:00,76.8,68.1,30.18,SSW,203,0.2,2.5,74,0.00,,,0.00,WUHU216HW,2013-07-05 02:28:00,
2013-07-04 22:34:00,76.7,68.3,30.18,WSW,248,0.2,2.2,75,0.00,,,0.00,WUHU216HW,2013-07-05 02:34:00,
2013-07-04 22:39:00,76.5,68.1,30.18,WSW,248,2.0,2.5,75,0.00,,,0.00,WUHU216HW,2013-07-05 02:39:00,
2013-07-04 22:44:00,76.5,68.1,30.18,NW,315,0.0,2.5,75,0.00,,,0.00,WUHU216HW,2013-07-05 02:44:00,
2013-07-04 22:49:00,76.3,68.0,30.18,WSW,248,0.4,2.0,75,0.00,,,0.00,WUHU216HW,2013-07-05 02:49:00,
2013-07-04 22:54:00,76.3,68.0,30.18,SE,135,0.4,4.7,75,0.00,,,0.00,WUHU216HW,2013-07-05 02:54:00,
2013-07-04 22:59:00,76.1,67.8,30.18,SSW,203,3.4,4.7,75,0.00,,,0.00,WUHU216HW,2013-07-05 02:59:00,
2013-07-04 23:04:00,76.1,67.8,30.18,WSW,248,1.6,3.4,75,0.00,,,0.00,WUHU216HW,2013-07-05 03:04:00,
2013-07-04 23:09:00,76.1,67.8,30.18,SE,135,0.7,2.2,75,0.00,,,0.00,WUHU216HW,2013-07-05 03:09:00,
2013-07-04 23:14:00,75.9,67.9,30.18,SW,225,1.8,2.2,76,0.00,,,0.00,WUHU216HW,2013-07-05 03:14:00,
2013-07-04 23:20:00,75.8,67.8,30.18,SE,135,0.7,2.5,76,0.00,,,0.00,WUHU216HW,2013-07-05 03:20:00,
2013-07-04 23:25:00,75.6,67.6,30.18,South,180,1.1,2.5,76,0.00,,,0.00,WUHU216HW,2013-07-05 03:25:00,
2013-07-04 23:30:00,75.6,67.6,30.18,SSE,158,0.2,1.8,76,0.00,,,0.00,WUHU216HW,2013-07-05 03:30:00,
2013-07-04 23:35:00,75.4,67.5,30.18,SSE,158,0.4,2.5,76,0.00,,,0.00,WUHU216HW,2013-07-05 03:35:00,
2013-07-04 23:40:00,75.4,67.5,30.18,West,270,0.4,2.7,76,0.00,,,0.00,WUHU216HW,2013-07-05 03:40:00,
2013-07-04 23:45:00,75.2,67.6,30.18,SW,225,1.6,2.7,77,0.00,,,0.00,WUHU216HW,2013-07-05 03:45:00,
2013-07-04 23:50:00,75.2,67.6,30.18,WNW,293,0.7,1.8,77,0.00,,,0.00,WUHU216HW,2013-07-05 03:50:00,
2013-07-04 23:55:00,75.0,67.4,30.18,East,90,0.4,3.1,77,0.00,,,0.00,WUHU216HW,2013-07-05 03:55:00,